Starlink 11393

operational
NORAD ID: 62016 Int'l Des: 2024-213 Owner: SPXS Country: US Constellation: starlink
LEOCIRCULAR

Starlink 11393について

説明を読み込み中...

リアルタイム位置

3D地球を読み込み中...

次回通過

高度履歴

Altitude vs Time

uPlot chart will show altitude changes over time

軌道要素

1 62016U 24213J 25308.16304922 .00226290 00000-0 18144-2 0 9993
2 62016 53.1570 299.7796 0001184 50.4746 309.6376 15.69813006 55202
Epoch: Nov 4, 2025 • Age: 6 hours

現在のステータス

高度 368.4 km
速度 7.69 km/s
衛星直下点 -28.31°S, 42.77°W
打ち上げ日 Nov 18, 2024
運用期間 0.9 years
タイプ internet

技術仕様

分類 Payload
質量 960.00 kg
乾燥質量 910.00 kg
総質量 960.00 kg
長さ 0.30 m
直径 4.10 m
スパン 29.00 m
形状 Box + pan
製造者 SPXS
バスタイプ Starlink V2MD
フェーズステータス In Orbit
所有者/国 SPXS/US

大規模コンステレーション

Loading constellations...